Tracking 23885 objects as of 28-Nov-2021
HD Live streaming from Space Station
objects crossing your sky now

SPACEBEENZ-3

Track SPACEBEENZ-3 now!
10-day predictions


NORAD ID: 46938
Int'l Code: 2020-085K
Perigee: 488.7 km
Apogee: 511.0 km
Inclination: 97.4 °
Period: 94.5 minutes
Semi major axis: 6870 km
RCS: Unknown
Launch date: November 20, 2020
Source: (NZL)
Launch site: Rocket Lab Launch Complex (RLLC)
aabbcc
Your satellite tracking list
Your tracking list is empty




NASA's NSSDC Master Catalog

Two Line Element Set (TLE):
1 46938U 20085K   21331.14427798  .00005838  00000-0  24055-3 0  9990
2 46938  97.4140 105.6057 0016190  74.8969 285.4067 15.24356845 56603
Source of the keplerian elements: AFSPC